Погода в Курдамире

Погода в Курдамире : погода сейчас, прогноз погоды и архив. Всё, что Вы хотите узнать о погоде в Курдамире!

Поиск расширенной информации на нашем сайте:

Другие новости

Новости СМИ2

Главная страница сайта

Новости сайта

02.10.2013

Напоминаем, что на нашем новом сайте вы можете получить высокодетализированные прогнозы погоды по пунктам России, СНГ и мира (включающие важные для авиации метеовеличины, такие как направление и скорость ветра, видимость, явления погоды, количество и форма облачности, нижняя и верхняя граница облачности), а также ознакомиться с разнообразными материалами по авиационной метеорологии и подборкой полезных ссылок на эту тему.

Сайт Метеоцентр.Азия посвящён разработке технологий оптимизации авиаметеорологического обслуживания, включая проектирование и перспективное создание нескольких автоматизированных авиаметеорологических систем:
- система выпуска высокодетальных прогностических карт явлений погоды для нижнего воздушного пространства по России и ближнему зарубежью;
- система верификации прогнозов TAF (выпускаемых синоптиками официальных АМСГ РФ и ближнего зарубежья) и AUTOTAF (выпускаемых сайтом Метеоцентр.Азия) - выявление ошибок, онлайн-сопоставление с фактической погодой METAR, автоматическое внесение коррективов в прогнозы при резком отклонении фактической погоды от прогноза, подсчёт оправдываемости прогнозов по элементам и в целом;
- система обработки, анализа и отображения авиаметеорологической информации для применения провайдерами метеорологической информации.


Погода в Курдамире - сегодня

Время (UTC), дата Ветер
(°,м/с) 
Видим.   Явления Облачность Т
(°С)
Тd
(°С)
f(%) Тe
(°С)
Pmin
(гПа)
dP
(гПа)
Po
(мм)
O2
(г/м3)
Тmin Tmax R s Состояние
почвы
15 26.03.17 210 (ЮЗ) 20000 м    4/0 средняя 
[Ac trans]
+16.2 +4.7 46 +18  1013  -0.6  759  288           
21 26.03.17 080 (В) 20000 м    ясно 
+7.8 +6.2 90 +7  1014.3  -0.3  760  297           
00 27.03.17 050 (СВ) 20000 м    ясно 
+6.8 +5.5 91 +7  1012.9  -1.4  759  298           
03 27.03.17 290 (З) 20000 м    6/0 средняя 
[Ac trans]
+5 +4.5 97 +5  1012.9  759  300           
06 27.03.17 280 (З) 20000 м  туман  6/0 верхняя 
[Ci ing]
+9.5 +8.5 93 +9  1013  0.1  759  294           
09 27.03.17 280 (З) 20000 м  {туман}  8/0 средняя, верхняя 
[Ac trans|Ci fib]
+18.8 +7.1 46 +19  1011.2  -1.8  758  285           
12 27.03.17 270 (З) 20000 м  {туман}  4/0 верхняя 
[Ci ing]
+23.8 +5.1 30 +24  1008.1  -3.1  756  279           
15 27.03.17 210 (ЮЗ) 20000 м    6/3 600 м средняя 
[Sc|Ac trans]
+22 +6.5 37 +22  1007.3  -0.8  755  281           
18 27.03.17 150 (ЮВ) 20000 м    ясно 
+15.8 +8.5 62 +17  1008.3  756  286    +24       
21 27.03.17 260 (З) 20000 м    ясно 
+9.8 +6.4 79 +10  1011.3  758  294           
00 28.03.17 180 (Ю) 20000 м    ясно 
+7 +5 87 +7  1010.4  -0.9  757  297           
03 28.03.17 220 (ЮЗ) 20000 м    10/10 600 м 
[Sc]
+7.1 +5.3 88 +8  1011.9  1.5  759  297           
09 28.03.17 110 (В) 10 км  слаб. ливневой дождь  10/10 600 м кучево-дожд. 
[Cb cap]
+9.2 +6.7 84 +9  1017.6  1.2  763  296           
12 28.03.17 180 (Ю) 20000 м  {ливн. осадки}  9/8 600 м средняя 
[Sc|Ac trans]
+10.7 +6.2 74 +12  1017.1  -0.5  762  295           
15 28.03.17 180 (Ю) 20000 м    8/5 600 м средняя 
[Sc|Ac trans]
+11 +4.3 63 +11  1017.6  0.5  763  295      0.5     
21 28.03.17 350 (С) 20000 м    ясно 
+5.1 +3.4 89 +6  1017  -0.9  762  301           
00 29.03.17 320 (СЗ) 20000 м    ясно 
+5 +1.2 76 +3  1015.3  -1.7  761  301           
03 29.03.17 290 (З) 20000 м    ясно 
+4.6 -0.5 69 +2  1015.5  0.2  761  302           
09 29.03.17 160 (Ю) 20000 м    ясно 
+16.4 +0.1 33 +17  1017.3  -0.3  763  290           
12 29.03.17 280 (З) 20000 м    ясно 
+20.2 -1.9 22 +20  1015.6  -1.7  761  286           
15 29.03.17 тихо ()   20000 м    ясно 
+20 -1 24 +20  1017.2  1.6  763  286           
21 29.03.17 160 (Ю) 20000 м    ясно 
+7.7 +3 72 +7  1024.4  2.2  768  301           
00 30.03.17 340 (С) 20000 м    ясно 
+6.3 +2.2 75 +7  1025.2  0.8  769  302           
03 30.03.17 050 (СВ) 20000 м    ясно 
+5.9 +1.9 75 +6  1025.6  0.4  769  303           
06 30.03.17 110 (В) 20000 м    10/10 600 м 
[Sc]
+11.3 +5.3 67 +12  1025.7  0.1  769  297           
Время (UTC), дата Ветер
(°,м/с) 
Видим.   Явления Облачность Т
(°С)
Тd
(°С)
f(%) Тe
(°С)
Pmin
(гПа)
dP
(гПа)
Po
(мм)
O2
(г/м3)
Тmin Tmax R s Состояние
почвы

Для получения пояснительной информации подведите курсор к названию столбца.

ПОГОДА в Курдамире - архив

Всё, что Вы хотите узнать о погоде в Курдамире - удобно и подробно!

Выберите нужную дату (начиная с 1 января 2015* года) и нажмите кнопку "Найти".
Будут отображены архивные сводки погоды по пункту Курдамир, начиная с указанной даты.


Отображать данные в формате CSV (для использования в таблицах Excel)


Внимание! Наш архив погоды предназначен исключительно для личного некоммерческого использования в познавательных целях. Если Вам необходимы официальные справки о состоянии погоды (для производственных, юридических, коммерческих и т.п. целей), обращайтесь в органы Росгидромета.

*Примечание: данная дата относится к архиву по метеостанциям СССР (Россия, СНГ, Балтия).
Архив по метеостанциям Зарубежной Европы и Азии (кроме Китая) хранится 10 дней, по другим регионам земного шара (Китай, Африка, Америка, Австралия, Океания) - 1 день.

Курдамир - район местоположения метеостанции


Название, широта, долгота, высота метеостанции:
Курдамир 40.3°ш. 48.2°д. 4 м над ур. моря [Азербайджан]

Дополнительная информация

В oтличие oт бoльшинства пoгoдных сайтoв мы публикуем пoдрoбную метеoинфoрмацию в детальнoм прoфессиoнальнoм фoрмате.

Характеристики температуры и влажнoсти вoздуха измеряются на высoте 2 м в тени вдали oт зданий и деревьев.
Скoрoсть ветра измеряется на высoте 10 м (на урoвне рoста челoвека скoрoсть ветра ниже в 1.5-2 раза). Если метеoстанция нахoдится в гoрoде или в лесу, тo скoрoсть ветра занижена на 2-4 м/с пo сравнению с oткрытым местoм. Скoрoсть ветра над акватoриями крупных рек и oзёр, а также на вершинах хoлмoв на 2-5 м/с выше, чем в oбычных услoвиях.
Атмoсфернoе давление в разных тoчках местнoсти мoжет значительнo oтличаться oт давления на метеoстанции, в зависимoсти oт услoвий рельефа (при пoдъёме на 10 м давление пoнижается примернo на 1 мм рт.ст.).